User: anonymous   Login
Location: Unspecified
(0.0000°N, 0.0000°E)
Time: 11:34:12
(UTC+00:00)
Language:

TECSAR - Orbit

View from above orbital plane
View from above orbital plane
View from above satellite
View from above satellite

Ground track
Ground track

The orbit data is extracted from the following two-line orbital elements,

1 32476U 08002A   18084.80741673 0.00000000  00000-0  00000-0 0    02
2 32476  41.0386  16.1909 0005500  48.6074 311.3920 15.15797186    00
Epoch (UTC): 25 March 2018 19:22:40
Eccentricity: 0.0005500
inclination: 41.0386°
perigee height: 515 km
apogee height: 522 km
right ascension of ascending node: 16.1909°
argument of perigee: 48.6074°
revolutions per day: 15.15797186
mean anomaly at epoch: 311.3920°
orbit number at epoch: 0

The dashed part of the orbit path shows where the satellite is in the earth's shadow,  

DLR